Regional Weather Roundup
Issued by NWS

Home | Current Version | Previous Version | Graphics & Text | Print | Product List | Glossary Off
Versions: 1 2 3 4 5 6 7 8 9 10 11 12 13 14 15 16 17 18 19 20 21 22 23 24 25 26 27 28 29 30 31 32 33 34 35 36 37 38 39 40 41 42 43 44 45 46 47 48 49 50

000
ASUS43 KMKX 211211
RWRWI

WISCONSIN REGIONAL WEATHER ROUNDUP
NATIONAL WEATHER SERVICE MILWAUKEE/SULLIVAN WI
600 AM CST SUN DEC 21 2014

NOTE: "FAIR" INDICATES FEW OR NO CLOUDS BELOW 12,000 FEET WITH NO
SIGNIFICANT WEATHER AND/OR OBSTRUCTIONS TO VISIBILITY.

WIZ001-002-006>008-014>016-023>028-211300-
NORTHWEST WISCONSIN

CITY           SKY/WX    TMP DP  RH WIND       PRES   REMARKS
SUPERIOR ARPT  CLOUDY    32  28  88 SE3       29.96F
6HR MIN TEMP:  31; 6HR MAX TEMP:  32;

ASHLAND        CLOUDY    31  26  82 S7        30.01F WCI  24
6HR MIN TEMP:  31; 6HR MAX TEMP:  32;

HAYWARD        CLOUDY    30  26  85 SE9       29.97F FOG     WCI  22
6HR MIN TEMP:  30; 6HR MAX TEMP:  30;

SIREN          CLOUDY    32  29  89 S10       29.95F WCI  23
6HR MIN TEMP:  31; 6HR MAX TEMP:  32;

CUMBERLAND     CLOUDY    30  28  93 SE12      29.96F FOG     WCI  21
RICE LAKE      CLOUDY    30  29  94 SE10      29.99F FOG     WCI  21
6HR MIN TEMP:  30; 6HR MAX TEMP:  31;

CHETEK         CLOUDY    30  28  94 SE9       29.99F FOG     WCI  22
6HR MIN TEMP:  30; 6HR MAX TEMP:  30;

LADYSMITH      CLOUDY    31  28  92 SE8       30.02F FOG     WCI  23
6HR MIN TEMP:  30; 6HR MAX TEMP:  31;

EAU CLAIRE     CLOUDY    31  27  85 SE12      30.00F WCI  22
6HR MIN TEMP:  30; 6HR MAX TEMP:  31;

MENOMONIE      CLOUDY    31  30  96 E10       30.00F FOG     WCI  22
6HR MIN TEMP:  31; 6HR MAX TEMP:  31;

NEW RICHMOND   CLOUDY    31  31  99 SE9G16    29.96F FOG     WCI  23
6HR MIN TEMP:  31; 6HR MAX TEMP:  32;

OSCEOLA        CLOUDY    32  32 100 SE14      29.97F FOG     WCI  22
6HR MIN TEMP:  32; 6HR MAX TEMP:  32;

$$

WIZ003>005-009-010-017-018-211300-
NORTH CENTRAL WISCONSIN

CITY           SKY/WX    TMP DP  RH WIND       PRES   REMARKS
MANITOWISH WTR CLOUDY    27  27 100 S9G16     30.01S FOG     WCI  18
6HR MIN TEMP:  27; 6HR MAX TEMP:  27;

ARBOR VITAE    CLOUDY    29  28  93 S8G16     30.02S FOG     WCI  21
6HR MIN TEMP:  29; 6HR MAX TEMP:  29;

WOODRUFF       CLOUDY    29  28  93 S8G16     30.02S FOG     WCI  21
6HR MIN TEMP:  29; 6HR MAX TEMP:  29;

RHINELANDER    CLOUDY    26  25  96 S7        30.04F FOG     WCI  18
6HR MIN TEMP:  26; 6HR MAX TEMP:  26;

EAGLE RIVER    CLOUDY    27  27  99 S6        30.03S FOG     WCI  20
6HR MIN TEMP:  26; 6HR MAX TEMP:  27;

LAND O LAKES   CLOUDY    28  27  96 S6        30.03S FOG     WCI  21
6HR MIN TEMP:  28; 6HR MAX TEMP:  28;

PHILLIPS       CLOUDY    28  26  94 S8        30.01F WCI  20
6HR MIN TEMP:  28; 6HR MAX TEMP:  28;

TOMAHAWK       CLOUDY    28  26  95 CALM      30.05S FOG
6HR MIN TEMP:  27; 6HR MAX TEMP:  28;

MEDFORD        CLOUDY    28  27  96 SE7       30.02F FOG     WCI  20
6HR MIN TEMP:  28; 6HR MAX TEMP:  28;

MERRILL        CLOUDY    28  28  98 S5        30.06F FOG     WCI  23
6HR MIN TEMP:  28; 6HR MAX TEMP:  28;

$$

WIZ029-030-035-036-043>047-211300-
CENTRAL WISCONSIN

CITY           SKY/WX    TMP DP  RH WIND       PRES   REMARKS
WAUSAU         CLOUDY    29  26  89 SE7       30.06F FOG     WCI  22
6HR MIN TEMP:  28; 6HR MAX TEMP:  29;

MOSINEE        CLOUDY    28  28 100 SE6       30.08F FOG     WCI  22
MARSHFIELD     CLOUDY    29  26  89 SE9       30.05F FOG     WCI  20
6HR MIN TEMP:  29; 6HR MAX TEMP:  29;

STEVENS POINT  CLOUDY    28  26  94 SE6       30.09F FOG     WCI  21
6HR MIN TEMP:  27; 6HR MAX TEMP:  28;

WAUPACA        CLOUDY    32  28  88 SE5       30.13F FOG     WCI  27
6HR MIN TEMP:  30; 6HR MAX TEMP:  32;

WAUTOMA        CLOUDY    30  30 100 SE5       30.12F FOG     WCI  25
6HR MIN TEMP:  29; 6HR MAX TEMP:  30;

WISC RAPIDS    CLOUDY    30  26  85 S6        30.10F FOG     WCI  24
6HR MIN TEMP:  29; 6HR MAX TEMP:  30; 6HR PCP: TRACE;

CAMP DOUGLAS   CLOUDY    30  30 100 SE7       30.08F FOG     WCI  24
6HR MIN TEMP:  29; 6HR MAX TEMP:  30; 6HR PCP: TRACE;

$$

WIZ011>013-019>022-031-037>040-048>050-211300-
NORTHEAST WISCONSIN

CITY           SKY/WX    TMP DP  RH WIND       PRES   REMARKS
ANTIGO         FOG       26  26 100 S7        30.08S VSB 1   WCI  18
6HR MIN TEMP:  25; 6HR MAX TEMP:  26;

SHAWANO        CLOUDY    31  28  86 S3        30.14S FOG
6HR MIN TEMP:  30; 6HR MAX TEMP:  31;

OCONTO         CLOUDY    30  28  94 S3        30.16R
6HR MIN TEMP:  28; 6HR MAX TEMP:  30;

STURGEON BAY   CLOUDY    30  25  80 S7        30.17S WCI  23
6HR MIN TEMP:  27; 6HR MAX TEMP:  30;

GREEN BAY      CLOUDY    31  27  85 S7        30.16R FOG     WCI  24
6HR MIN TEMP:  29; 6HR MAX TEMP:  31;

MANITOWOC      CLOUDY    32  29  88 S8        30.18R WCI  25
6HR MIN TEMP:  30; 6HR MAX TEMP:  32;

APPLETON       CLOUDY    30  28  93 S5        30.14F FOG     WCI  25
CLINTONVILLE   CLOUDY    30  28  93 S6        30.13S FOG     WCI  24
OSHKOSH        CLOUDY    31  27  85 S6        30.14S FOG     WCI  25
6HR MIN TEMP:  29; 6HR MAX TEMP:  31;

$$

WIZ032>034-041-042-053>061-211300-
SOUTHWEST WISCONSIN

CITY           SKY/WX    TMP DP  RH WIND       PRES   REMARKS
LA CROSSE      CLOUDY    34  30  85 SE8       30.04F WCI  27
6HR MIN TEMP:  33; 6HR MAX TEMP:  34;

SPARTA         CLOUDY    32  30  93 SE9       30.06F FOG     WCI  24
6HR MIN TEMP:  31; 6HR MAX TEMP:  32;

VIROQUA        CLOUDY    31  31 100 SE12      30.04S VSB 1/2 WCI  21
6HR MIN TEMP:  29; 6HR MAX TEMP:  31;

BOSCOBEL       CLOUDY    34  31  88 CALM      30.09F FOG
6HR MIN TEMP:  32; 6HR MAX TEMP:  34;

PRAIRIE DU CHI CLOUDY    33  32  96 SE6       30.07F FOG     WCI  27
6HR MIN TEMP:  32; 6HR MAX TEMP:  33;

PLATTEVILLE    CLOUDY    33  32  98 CALM      30.09F VSB 1
6HR MIN TEMP:  31; 6HR MAX TEMP:  33;

$$

WIZ056-057-062-063-064-067-068-211300-
SOUTH CENTRAL WISCONSIN

CITY           SKY/WX    TMP DP  RH WIND       PRES   REMARKS
REEDSBURG      CLOUDY    31  30  96 SE6       30.09F FOG     WCI  25
6HR MIN TEMP:  29; 6HR MAX TEMP:  31;

BARABOO/DELLS  CLOUDY    31  29  94 S6        30.10F FOG     WCI  25
6HR MIN TEMP:  29; 6HR MAX TEMP:  31;

LONE ROCK      CLOUDY    36  30  79 SE5       30.10F HAZE    WCI  32
6HR MIN TEMP:  34; 6HR MAX TEMP:  36; 6HR PCP: TRACE;

MINERAL POINT  SNOW      34  32  93 SE10      30.08F VSB 1/4 WCI  26
MADISON        LGT SNOW  31  29  92 S10       30.13S FOG     WCI  22
6HR MIN TEMP:  30; 6HR MAX TEMP:  32; 6HR PCP: TRACE;

MIDDLETON      CLOUDY    33  32  97 S7        30.12F WCI  27
6HR MIN TEMP:  32; 6HR MAX TEMP:  33;

WATERTOWN      CLOUDY    31  31  99 S6        30.14F FOG     WCI  25
6HR MIN TEMP:  29; 6HR MAX TEMP:  31;

MONROE         CLOUDY    32  32 100 S10       30.12S FOG     WCI  24
JANESVILLE     CLOUDY    34  30  86 S6        30.15S FOG     WCI  29
$$

WIZ051-052-058>065-066-070>072-211300-
SOUTHEAST WISCONSIN

CITY           SKY/WX    TMP DP  RH WIND       PRES   REMARKS
MILWAUKEE      CLOUDY    32  26  78 S7        30.19S WCI  26
6HR MIN TEMP:  32; 6HR MAX TEMP:  32;

WAUKESHA       DRIZZLE   28  27  93 S7        30.18S FOG     WCI  21
MILWAUKEE/TIMM CLOUDY    32  27  80 S3        30.19S
RACINE         CLOUDY    33  26  75 S10       30.20S WCI  25
6HR MIN TEMP:  32; 6HR MAX TEMP:  33;

BURLINGTON     CLOUDY    30  27  89 S5        30.18R WCI  25
6HR MIN TEMP:  29; 6HR MAX TEMP:  30;

KENOSHA        CLOUDY    32  27  81 S8        30.19S WCI  25
6HR MIN TEMP:  32; 6HR MAX TEMP:  32;

FOND DU LAC    CLOUDY    31  27  85 S9        30.15S WCI  23
6HR MIN TEMP:  30; 6HR MAX TEMP:  31;

SHEBOYGAN      CLOUDY    31  26  82 S7        30.18R WCI  24
6HR MIN TEMP:  30; 6HR MAX TEMP:  31;

WEST BEND      CLOUDY    32  27  80 S3        30.17R
JUNEAU         CLOUDY    31  28  92 SE7       30.15S FOG     WCI  24
6HR MIN TEMP:  29; 6HR MAX TEMP:  31;

$$

LSZ147-162-211300-
LAKE SUPERIOR

STATION/POSITION TIME  TEMP    WIND        PRES    WAVE
                       AIR SEA DIR/SP/G            HT/PER
                 (UTC) (F)     (DEG/KT/KT) (MB)    (FT/S)
DEVILS ISLAND    1200   32     190/  7/  9 1016.9F
PORT WING        1140   32     170/  8/ 11 1015.6F
SAXON HARBOR     1100   32     200/  4/  8 1016.6
$$

LMZ867-665-643>646-211300-
LAKE MICHIGAN

STATION/POSITION TIME  TEMP    WIND        PRES    WAVE



USA.gov is the U.S. government's official web portal to all federal, state and local government web resources and services.